GMT,Max TemperatureF,Mean TemperatureF,Min TemperatureF,Max Dew PointF,MeanDew PointF,Min DewpointF,Max Humidity, Mean Humidity, Min Humidity, Max Sea Level PressureIn, Mean Sea Level PressureIn, Min Sea Level PressureIn, Max VisibilityMiles, Mean VisibilityMiles, Min VisibilityMiles, Max Wind SpeedMPH, Mean Wind SpeedMPH, Max Gust SpeedMPH,PrecipitationIn, CloudCover, Events, WindDirDegrees
2013-1-1,44,42,40,45,38,35,91,76,64,30.03,29.79,29.53,16,13,7,16,11,,0.00,,Rain,-1
2013-1-2,50,44,37,48,41,36,100,90,75,30.32,30.24,30.10,13,6,2,15,10,,0.08,5,Rain,242
2013-1-3,53,50,46,50,48,45,100,93,82,30.62,30.49,30.35,14,6,2,12,8,,0.00,1,,249
2013-1-4,48,45,42,48,44,41,93,88,75,30.64,30.62,30.60,19,7,2,14,10,,0.00,6,,266
2013-1-5,49,46,44,48,46,43,100,95,85,30.61,30.56,30.51,19,5,2,9,6,,0.01,7,,241
2013-1-6,46,43,41,46,43,39,100,97,87,30.51,30.48,30.42,11,2,0,13,8,,0.01,6,Fog,267
2013-1-7,46,44,42,45,43,42,100,96,89,30.40,30.33,30.29,9,4,1,13,8,,0.00,6,Rain,214
2013-1-8,52,49,46,46,45,43,93,85,72,30.28,30.26,30.24,15,8,6,13,9,,0.00,4,,226
2013-1-9,48,42,34,47,43,33,100,95,86,30.19,30.13,30.09,9,5,0,14,9,,0.02,6,Fog-Rain,334
2013-1-10,37,35,33,37,35,32,100,96,87,30.05,29.97,29.92,6,2,0,9,6,,0.01,5,Fog,278
2013-1-11,40,37,34,39,36,31,100,91,80,30.08,30.05,30.00,7,4,1,12,9,,0.02,7,Rain,354
2013-1-12,38,37,36,36,33,30,93,83,66,29.99,29.92,29.89,11,5,3,21,16,,0.02,5,Rain,110
2013-1-13,38,36,35,35,26,23,82,64,48,30.11,30.06,29.99,16,7,5,17,14,,0.00,5,Snow,43
2013-1-14,38,34,30,37,32,28,100,92,78,30.07,29.84,29.56,16,6,2,18,7,,0.12,4,Rain-Snow,197
2013-1-15,38,35,29,35,31,27,93,79,62,29.88,29.76,29.53,16,8,6,28,19,41,0.00,4,Rain-Snow,348
2013-1-16,36,32,29,34,30,24,100,88,49,30.01,29.91,29.83,19,6,1,16,8,,0.01,3,Rain-Snow,326
2013-1-17,35,32,28,32,29,26,100,90,72,30.10,30.06,29.96,11,4,1,15,6,,0.04,4,Snow,223
2013-1-18,32,29,26,28,25,23,93,81,68,29.91,29.65,29.47,7,5,2,25,17,32,0.00,6,Snow,136
2013-1-19,32,31,30,29,27,25,87,83,73,29.47,29.43,29.42,6,5,3,18,16,,0.00,8,Rain-Snow,70
2013-1-20,31,30,28,34,28,24,100,91,72,29.42,29.35,29.29,6,2,1,14,11,,0.04,7,Snow,49
2013-1-21,36,32,28,39,31,26,100,92,79,29.51,29.38,29.30,11,6,1,9,4,,0.08,6,Rain,251
2013-1-22,37,35,33,34,31,28,94,78,62,29.72,29.61,29.54,14,6,3,20,11,,0.20,3,Rain,127
2013-1-23,35,34,33,30,30,27,87,82,63,29.83,29.78,29.74,12,4,3,15,13,,0.00,5,Rain,95
2013-1-24,35,32,30,29,27,25,86,73,58,30.14,30.02,29.86,18,7,5,16,11,24,0.00,6,,65
2013-1-25,33,30,28,30,27,24,93,84,70,30.12,30.00,29.70,14,5,1,20,8,,0.00,5,Rain,171
2013-1-26,45,38,33,41,36,30,100,85,68,29.84,29.77,29.65,14,6,1,28,12,,0.08,5,Rain-Snow,258
2013-1-27,51,46,40,48,40,33,94,74,44,29.67,29.46,29.33,14,6,1,30,22,41,0.08,3,Rain,234
2013-1-28,51,42,35,47,38,34,93,83,67,29.86,29.78,29.60,14,8,4,33,12,34,0.03,4,Rain,227
2013-1-29,54,52,50,52,50,46,100,91,78,29.69,29.66,29.65,8,6,4,29,19,40,0.01,6,Rain,225
2013-1-30,53,50,44,51,42,35,100,72,45,30.04,29.73,29.57,16,7,2,25,19,40,0.01,2,Rain,252
2013-1-31,51,48,44,45,40,36,93,72,53,30.01,29.85,29.80,11,6,5,30,21,40,0.01,2,Rain,246